EW6113 Weather Reports


Display with metric or nautical units.
time (UTC)temp
F
wind
direction
speed
MPH
gust
MPH
rain 1hr
in
rain 24hr
in
rain mn
in
humidity
%
barometer
mb
20220520193045 69 284 10.0 17.0 0.00 0.00 0.00 75 1009.1
20220520191543 72 297 10.0 17.0 0.00 0.00 0.00 72 1009.0
20220520190042 73 301 10.0 16.0 0.00 0.00 0.00 69 1008.9
20220520184541 73 320 5.0 10.0 0.00 0.00 0.00 69 1008.9
20220520183040 74 283 7.0 10.0 0.00 0.00 0.00 67 1009.0
20220520181537 73 355 2.0 11.0 0.00 0.00 0.00 70 1009.0
20220520180033 71 323 4.0 10.0 0.00 0.00 0.00 72 1009.0
20220520174530 70 286 3.0 11.0 0.00 0.00 0.00 75 1008.9
20220520173027 69 290 5.0 11.0 0.00 0.00 0.00 76 1009.0
20220520171530 68 305 5.0 10.0 0.00 0.00 0.00 76 1009.0
20220520170033 67 306 7.0 11.0 0.00 0.00 0.00 77 1008.9
20220520164525 67 276 4.0 11.0 0.00 0.00 0.00 77 1008.9
20220520163024 67 290 7.0 10.0 0.00 0.00 0.00 76 1008.9
20220520161544 67 290 5.0 9.0 0.00 0.00 0.00 75 1008.9
20220520160025 69 331 2.0 5.0 0.00 0.00 0.00 75 1008.9
20220520154527 68 46 2.0 7.0 0.00 0.00 0.00 77 1009.0
20220520153017 66 46 1.0 4.0 0.00 0.00 0.00 77 1009.0
20220520151525 66 118 2.0 6.0 0.00 0.00 0.00 75 1009.0
20220520150009 65 95 3.0 7.0 0.00 0.00 0.00 71 1008.8
20220520144506 63 142 1.0 6.0 0.00 0.00 0.00 67 1008.9
20220520143006 62 88 1.0 6.0 0.00 0.00 0.00 63 1008.8
20220520141559 61 91 1.0 3.0 0.00 0.00 0.00 62 1008.7
20220520140130 59 94 0.0 4.0 0.00 0.00 0.00 64 1008.5
20220520134556 58 113 2.0 4.0 0.00 0.00 0.00 66 1008.2
20220520133058 57 107 2.0 4.0 0.00 0.00 0.00 67 1008.2
20220520131600 56 107 1.0 3.0 0.00 0.00 0.00 74 1008.2
20220520130101 57 81 1.0 4.0 0.00 0.00 0.00 73 1008.0
20220520124550 58 100 1.0 4.0 0.00 0.00 0.00 73 1007.8
20220520123047 58 101 2.0 4.0 0.00 0.00 0.00 73 1007.9
20220520121547 58 111 1.0 4.0 0.00 0.00 0.00 73 1007.9
20220520120053 58 143 1.0 3.0 0.00 0.00 0.00 73 1007.9
20220520114545 58 123 1.0 6.0 0.00 0.00 0.00 74 1007.8
20220520113046 58 116 2.0 4.0 0.00 0.00 0.00 74 1007.6
20220520111546 58 119 3.0 7.0 0.00 0.00 0.00 74 1007.7
20220520110044 59 146 2.0 7.0 0.00 0.00 0.00 74 1007.7
20220520104546 58 134 3.0 7.0 0.00 0.00 0.00 73 1007.5
20220520103047 58 127 1.0 4.0 0.00 0.00 0.00 73 1007.7
20220520101539 58 111 0.0 2.0 0.00 0.00 0.00 74 1007.8
20220520100050 58 110 0.0 6.0 0.00 0.00 0.00 74 1007.9
20220520094538 58 103 1.0 4.0 0.00 0.00 0.00 74 1007.9
20220520093052 58 135 2.0 4.0 0.00 0.00 0.00 75 1007.9
20220520091539 57 49 1.0 3.0 0.00 0.00 0.00 77 1008.0
20220520090033 58 47 0.0 3.0 0.00 0.00 0.00 78 1008.1
20220520084533 58 46 1.0 3.0 0.00 0.00 0.00 78 1008.2
20220520083033 59 45 0.0 0.0 0.00 0.00 0.00 79 1008.2
20220520081527 59 45 0.0 3.0 0.00 0.00 0.00 78 1008.2
20220520080026 60 309 1.0 3.0 0.00 0.00 0.00 78 1008.3
20220520074525 60 309 1.0 3.0 0.00 0.00 0.00 78 1008.2
20220520073021 61 306 2.0 5.0 0.00 0.00 0.00 78 1008.1
20220520071519 61 323 1.0 4.0 0.00 0.00 0.00 78 1008.1
20220520070016 61 88 0.0 6.0 0.00 0.00 0.00 78 1007.9
20220520064526 61 120 3.0 8.0 0.00 0.00 0.00 77 1007.7
20220520063022 60 153 1.0 3.0 0.00 0.00 0.00 78 1007.9
20220520061514 60 88 1.0 3.0 0.00 0.00 0.00 78 1007.8
20220520060029 60 137 1.0 4.0 0.00 0.00 0.00 79 1008.2
20220520054513 60 84 2.0 4.0 0.00 0.00 0.00 79 1008.3
20220520053017 61 73 0.0 2.0 0.00 0.00 0.00 78 1008.3
20220520051515 61 122 2.0 3.0 0.00 0.00 0.00 78 1008.4
20220520050010 61 99 0.0 4.0 0.00 0.00 0.00 78 1008.4
20220520044509 62 126 3.0 6.0 0.00 0.00 0.00 78 1008.4
20220520043009 62 118 0.0 4.0 0.00 0.00 0.00 78 1008.3
20220520041512 62 240 1.0 3.0 0.00 0.00 0.00 77 1008.2
20220520040008 62 188 2.0 4.0 0.00 0.00 0.00 78 1008.2
20220520034507 62 213 1.0 10.0 0.00 0.00 0.00 78 1008.2
20220520033010 62 223 4.0 10.0 0.00 0.00 0.00 78 1008.3
20220520031506 63 240 4.0 8.0 0.00 0.00 0.00 78 1008.4
20220520030006 63 229 6.0 11.0 0.00 0.00 0.00 78 1008.4
20220520024507 63 242 8.0 15.0 0.00 0.00 0.00 77 1008.4
20220520023004 64 274 5.0 15.0 0.00 0.00 0.00 77 1008.5
20220520021501 64 236 9.0 19.0 0.00 0.00 0.00 76 1008.5
20220520020118 65 271 9.0 17.0 0.00 0.00 0.00 75 1008.6
20220520014557 65 234 9.0 18.0 0.00 0.00 0.00 75 1008.9
20220520013058 66 254 9.0 16.0 0.00 0.00 0.00 74 1009.1
20220520011553 66 285 13.0 19.0 0.00 0.00 0.00 73 1009.1
20220520010055 67 203 11.0 20.0 0.00 0.00 0.00 71 1009.3
20220520004550 67 215 11.0 18.0 0.00 0.00 0.00 69 1009.6
20220520003100 68 279 11.0 18.0 0.00 0.00 0.00 67 1009.5
20220520001548 68 260 11.0 20.0 0.00 0.00 0.00 66 1009.7
20220520000047 69 246 10.0 17.0 0.00 0.00 0.00 64 1009.7
20220519234547 69 236 12.0 18.0 0.00 0.00 0.00 63 1009.9
20220519233059 70 233 10.0 19.0 0.00 0.00 0.00 64 1010.1
20220519231552 70 260 10.0 20.0 0.00 0.00 0.00 66 1010.4
20220519230054 70 275 8.0 19.0 0.00 0.00 0.00 68 1010.5
20220519224539 69 261 9.0 17.0 0.00 0.00 0.00 70 1010.6
20220519223055 69 271 12.0 20.0 0.00 0.00 0.00 70 1010.7
20220519221536 69 259 8.0 19.0 0.00 0.00 0.00 71 1010.9
20220519220050 70 286 8.0 16.0 0.00 0.00 0.00 70 1011.1
20220519214533 70 253 9.0 15.0 0.00 0.00 0.00 70 1011.2
20220519213033 70 254 11.0 16.0 0.00 0.00 0.00 70 1011.3
20220519211536 71 264 10.0 19.0 0.00 0.00 0.00 69 1011.3
20220519210029 70 296 10.0 17.0 0.00 0.00 0.00 71 1011.3
20220519204528 69 255 8.0 17.0 0.00 0.00 0.00 72 1011.6
20220519203029 70 252 9.0 16.0 0.00 0.00 0.00 72 1011.6
20220519201524 69 284 10.0 17.0 0.00 0.00 0.00 72 1011.8
20220519200028 70 245 7.0 18.0 0.00 0.00 0.00 71 1011.9
20220519194521 70 310 8.0 14.0 0.00 0.00 0.00 71 1012.0